owner,sensor,date,latitude,longitude,vertical_datum,sea_water_practical_salinity,qcFlag 
DISL,ioos:station:DISL:CATA:1,2012-03-01T00:00:00Z,30.3085,-88.1395,2.066,20.05,1111122 
DISL,ioos:station:DISL:CATA:1,2012-03-01T00:30:00Z,30.3085,-88.1395,2.058,18.57,1111122 
DISL,ioos:station:DISL:CATA:1,2012-03-01T01:00:00Z,30.3085,-88.1395,2.026,18.83,1111122 
DISL,ioos:station:DISL:CATA:1,2012-03-01T01:30:00Z,30.3085,-88.1395,2.015,11.11,1111122 
DISL,ioos:station:DISL:CATA:1,2012-03-01T02:00:00Z,30.3085,-88.1395,1.997,10.37,1111122 
DISL,ioos:station:DISL:CATA:1,2012-03-01T02:30:00Z,30.3085,-88.1395,1.966,8.64,1111122 
DISL,ioos:station:DISL:CATA:1,2012-03-01T03:00:00Z,30.3085,-88.1395,1.933,7.94,1111122 
DISL,ioos:station:DISL:CATA:1,2012-03-01T03:30:00Z,30.3085,-88.1395,1.907,7.67,1111122 
DISL,ioos:station:DISL:CATA:1,2012-03-01T04:00:00Z,30.3085,-88.1395,1.879,7.8,1111122 
DISL,ioos:station:DISL:CATA:1,2012-03-01T04:30:00Z,30.3085,-88.1395,1.847,7.99,1111122 
DISL,ioos:station:DISL:CATA:1,2012-03-01T05:00:00Z,30.3085,-88.1395,1.819,9.22,1111122 
DISL,ioos:station:DISL:CATA:1,2012-03-01T05:30:00Z,30.3085,-88.1395,1.789,10.11,1111122 
DISL,ioos:station:DISL:CATA:1,2012-03-01T06:00:00Z,30.3085,-88.1395,1.761,9.91,1111122 
DISL,ioos:station:DISL:CATA:1,2012-03-01T06:30:00Z,30.3085,-88.1395,1.746,9.14,1111122 
DISL,ioos:station:DISL:CATA:1,2012-03-01T07:00:00Z,30.3085,-88.1395,1.728,9.07,1111122 
DISL,ioos:station:DISL:CATA:1,2012-03-01T07:30:00Z,30.3085,-88.1395,1.716,8.96,1111122 
DISL,ioos:station:DISL:CATA:1,2012-03-01T08:00:00Z,30.3085,-88.1395,1.713,8.75,1111122 
DISL,ioos:station:DISL:CATA:1,2012-03-01T08:30:00Z,30.3085,-88.1395,1.711,9.27,1111122 
DISL,ioos:station:DISL:CATA:1,2012-03-01T09:00:00Z,30.3085,-88.1395,1.713,8.52,1111122 
DISL,ioos:station:DISL:CATA:1,2012-03-01T09:30:00Z,30.3085,-88.1395,1.725,8.55,1111122 
DISL,ioos:station:DISL:CATA:1,2012-03-01T10:00:00Z,30.3085,-88.1395,1.718,8.54,1111122 
DISL,ioos:station:DISL:CATA:1,2012-03-01T10:30:00Z,30.3085,-88.1395,1.721,9.53,1111122 
DISL,ioos:station:DISL:CATA:1,2012-03-01T11:00:00Z,30.3085,-88.1395,1.727,9.53,1111122 
DISL,ioos:station:DISL:CATA:1,2012-03-01T11:30:00Z,30.3085,-88.1395,1.729,9.02,1111122 
DISL,ioos:station:DISL:CATA:1,2012-03-01T12:00:00Z,30.3085,-88.1395,1.752,8.39,1111122 
DISL,ioos:station:DISL:CATA:1,2012-03-01T12:30:00Z,30.3085,-88.1395,1.766,8.18,1111122 
DISL,ioos:station:DISL:CATA:1,2012-03-01T13:00:00Z,30.3085,-88.1395,1.784,8.04,1111122 
DISL,ioos:station:DISL:CATA:1,2012-03-01T13:30:00Z,30.3085,-88.1395,1.797,7.85,1111122 
DISL,ioos:station:DISL:CATA:1,2012-03-01T14:00:00Z,30.3085,-88.1395,1.825,6.65,1111122 
DISL,ioos:station:DISL:CATA:1,2012-03-01T14:30:00Z,30.3085,-88.1395,1.85,6.06,1111122 
DISL,ioos:station:DISL:CATA:1,2012-03-01T15:00:00Z,30.3085,-88.1395,1.871,6.21,1111122 
DISL,ioos:station:DISL:CATA:1,2012-03-01T15:30:00Z,30.3085,-88.1395,1.907,6.3,1111122 
DISL,ioos:station:DISL:CATA:1,2012-03-01T16:00:00Z,30.3085,-88.1395,1.925,6.54,1111122 
DISL,ioos:station:DISL:CATA:1,2012-03-01T16:30:00Z,30.3085,-88.1395,1.944,6.75,1111122 
DISL,ioos:station:DISL:CATA:1,2012-03-01T17:00:00Z,30.3085,-88.1395,1.976,7.21,1111122 
DISL,ioos:station:DISL:CATA:1,2012-03-01T17:30:00Z,30.3085,-88.1395,2.024,7.93,1111122 
DISL,ioos:station:DISL:CATA:1,2012-03-01T18:00:00Z,30.3085,-88.1395,2.058,8.36,1111122 
DISL,ioos:station:DISL:CATA:1,2012-03-01T18:30:00Z,30.3085,-88.1395,2.07,9.04,1111122 
DISL,ioos:station:DISL:CATA:1,2012-03-01T19:00:00Z,30.3085,-88.1395,2.107,9.52,1111122 
DISL,ioos:station:DISL:CATA:1,2012-03-01T19:30:00Z,30.3085,-88.1395,2.128,9.84,1111122 
DISL,ioos:station:DISL:CATA:1,2012-03-01T20:00:00Z,30.3085,-88.1395,2.133,11.14,1111122 
DISL,ioos:station:DISL:CATA:1,2012-03-01T20:30:00Z,30.3085,-88.1395,2.132,11.09,1111122 
DISL,ioos:station:DISL:CATA:1,2012-03-01T21:00:00Z,30.3085,-88.1395,2.139,10.9,1111122 
DISL,ioos:station:DISL:CATA:1,2012-03-01T21:30:00Z,30.3085,-88.1395,2.156,10.89,1111122 
DISL,ioos:station:DISL:CATA:1,2012-03-01T22:00:00Z,30.3085,-88.1395,2.165,11.46,1111122 
DISL,ioos:station:DISL:CATA:1,2012-03-01T22:30:00Z,30.3085,-88.1395,2.157,11.66,1111122 
DISL,ioos:station:DISL:CATA:1,2012-03-01T23:00:00Z,30.3085,-88.1395,2.156,12.96,1111122 
DISL,ioos:station:DISL:CATA:1,2012-03-01T23:30:00Z,30.3085,-88.1395,2.152,13.56,1111122 
DISL,ioos:station:DISL:CATA:1,2012-03-02T00:00:00Z,30.3085,-88.1395,2.142,13.91,1111122 
DISL,ioos:station:DISL:CATA:1,2012-03-02T00:30:00Z,30.3085,-88.1395,2.132,13.97,1111122 
DISL,ioos:station:DISL:CATA:1,2012-03-02T01:00:00Z,30.3085,-88.1395,2.115,14.03,1111122 
DISL,ioos:station:DISL:CATA:1,2012-03-02T01:30:00Z,30.3085,-88.1395,2.093,14.06,1111122 
DISL,ioos:station:DISL:CATA:1,2012-03-02T02:00:00Z,30.3085,-88.1395,2.073,14.23,1111122 
DISL,ioos:station:DISL:CATA:1,2012-03-02T02:30:00Z,30.3085,-88.1395,2.026,14.32,1111122 
DISL,ioos:station:DISL:CATA:1,2012-03-02T03:00:00Z,30.3085,-88.1395,1.995,14.71,1111122 
DISL,ioos:station:DISL:CATA:1,2012-03-02T03:30:00Z,30.3085,-88.1395,1.959,16.18,1111122 
DISL,ioos:station:DISL:CATA:1,2012-03-02T04:00:00Z,30.3085,-88.1395,1.927,17.12,1111122 
DISL,ioos:station:DISL:CATA:1,2012-03-02T04:30:00Z,30.3085,-88.1395,1.9,17.46,1111122 
DISL,ioos:station:DISL:CATA:1,2012-03-02T05:00:00Z,30.3085,-88.1395,1.879,17.36,1111122 
DISL,ioos:station:DISL:CATA:1,2012-03-02T05:30:00Z,30.3085,-88.1395,1.861,16.94,1111122 
DISL,ioos:station:DISL:CATA:1,2012-03-02T06:00:00Z,30.3085,-88.1395,1.828,16.41,1111122 
DISL,ioos:station:DISL:CATA:1,2012-03-02T06:30:00Z,30.3085,-88.1395,1.8,14.67,1111122 
DISL,ioos:station:DISL:CATA:1,2012-03-02T07:00:00Z,30.3085,-88.1395,1.783,14.21,1111122 
DISL,ioos:station:DISL:CATA:1,2012-03-02T07:30:00Z,30.3085,-88.1395,1.771,13.52,1111122 
DISL,ioos:station:DISL:CATA:1,2012-03-02T08:00:00Z,30.3085,-88.1395,1.76,12.93,1111122 
DISL,ioos:station:DISL:CATA:1,2012-03-02T08:30:00Z,30.3085,-88.1395,1.75,12.57,1111122 
DISL,ioos:station:DISL:CATA:1,2012-03-02T09:00:00Z,30.3085,-88.1395,1.736,12.2,1111122 
DISL,ioos:station:DISL:CATA:1,2012-03-02T09:30:00Z,30.3085,-88.1395,1.741,11.57,1111122 
DISL,ioos:station:DISL:CATA:1,2012-03-02T10:00:00Z,30.3085,-88.1395,1.745,10.46,1111122 
DISL,ioos:station:DISL:CATA:1,2012-03-02T10:30:00Z,30.3085,-88.1395,1.753,9.94,1111122 
DISL,ioos:station:DISL:CATA:1,2012-03-02T11:00:00Z,30.3085,-88.1395,1.768,9.57,1111122 
DISL,ioos:station:DISL:CATA:1,2012-03-02T11:30:00Z,30.3085,-88.1395,1.777,9.57,1111122 
DISL,ioos:station:DISL:CATA:1,2012-03-02T12:00:00Z,30.3085,-88.1395,1.789,9.71,1111122 
DISL,ioos:station:DISL:CATA:1,2012-03-02T12:30:00Z,30.3085,-88.1395,1.814,9.53,1111122 
DISL,ioos:station:DISL:CATA:1,2012-03-02T13:00:00Z,30.3085,-88.1395,1.833,9.46,1111122 
DISL,ioos:station:DISL:CATA:1,2012-03-02T13:30:00Z,30.3085,-88.1395,1.853,9.75,1111122 
DISL,ioos:station:DISL:CATA:1,2012-03-02T14:00:00Z,30.3085,-88.1395,1.868,10.14,1111122 
DISL,ioos:station:DISL:CATA:1,2012-03-02T14:30:00Z,30.3085,-88.1395,1.89,10.61,1111122 
DISL,ioos:station:DISL:CATA:1,2012-03-02T15:00:00Z,30.3085,-88.1395,1.904,11.08,1111122 
DISL,ioos:station:DISL:CATA:1,2012-03-02T15:30:00Z,30.3085,-88.1395,1.94,10.3,1111122 
DISL,ioos:station:DISL:CATA:1,2012-03-02T16:00:00Z,30.3085,-88.1395,1.964,10.43,1111122 
DISL,ioos:station:DISL:CATA:1,2012-03-02T16:30:00Z,30.3085,-88.1395,2.012,10.37,1111122 
DISL,ioos:station:DISL:CATA:1,2012-03-02T17:00:00Z,30.3085,-88.1395,2.038,10.57,1111122 
DISL,ioos:station:DISL:CATA:1,2012-03-02T17:30:00Z,30.3085,-88.1395,2.07,10.73,1111122 
DISL,ioos:station:DISL:CATA:1,2012-03-02T18:00:00Z,30.3085,-88.1395,2.087,11.27,1111122 
DISL,ioos:station:DISL:CATA:1,2012-03-02T18:30:00Z,30.3085,-88.1395,2.099,11.77,1111122 
DISL,ioos:station:DISL:CATA:1,2012-03-02T19:00:00Z,30.3085,-88.1395,2.123,12.16,1111122 
DISL,ioos:station:DISL:CATA:1,2012-03-02T19:30:00Z,30.3085,-88.1395,2.128,12.38,1111122 
DISL,ioos:station:DISL:CATA:1,2012-03-02T20:00:00Z,30.3085,-88.1395,2.153,12.77,1111122 
DISL,ioos:station:DISL:CATA:1,2012-03-02T20:30:00Z,30.3085,-88.1395,2.178,13.04,1111122 
DISL,ioos:station:DISL:CATA:1,2012-03-02T21:00:00Z,30.3085,-88.1395,2.204,13.45,1111122 
DISL,ioos:station:DISL:CATA:1,2012-03-02T21:30:00Z,30.3085,-88.1395,2.222,13.84,1111122 
DISL,ioos:station:DISL:CATA:1,2012-03-02T22:00:00Z,30.3085,-88.1395,2.231,14.15,1111122 
DISL,ioos:station:DISL:CATA:1,2012-03-02T22:30:00Z,30.3085,-88.1395,2.243,14.43,1111122 
DISL,ioos:station:DISL:CATA:1,2012-03-02T23:00:00Z,30.3085,-88.1395,2.243,14.51,1111122 
DISL,ioos:station:DISL:CATA:1,2012-03-02T23:30:00Z,30.3085,-88.1395,2.253,14.43,1111122 
DISL,ioos:station:DISL:CATA:1,2012-03-03T00:00:00Z,30.3085,-88.1395,2.248,14.5,1111122 
DISL,ioos:station:DISL:CATA:1,2012-03-03T00:30:00Z,30.3085,-88.1395,2.238,14.64,1111122 
DISL,ioos:station:DISL:CATA:1,2012-03-03T01:00:00Z,30.3085,-88.1395,2.232,14.84,1111122 
DISL,ioos:station:DISL:CATA:1,2012-03-03T01:30:00Z,30.3085,-88.1395,2.228,14.89,1111122 
DISL,ioos:station:DISL:CATA:1,2012-03-03T02:00:00Z,30.3085,-88.1395,2.22,15.02,1111122 
DISL,ioos:station:DISL:CATA:1,2012-03-03T02:30:00Z,30.3085,-88.1395,2.203,15.54,1111122 
DISL,ioos:station:DISL:CATA:1,2012-03-03T03:00:00Z,30.3085,-88.1395,2.174,15.58,1111122 
DISL,ioos:station:DISL:CATA:1,2012-03-03T03:30:00Z,30.3085,-88.1395,2.157,15.57,1111122 
DISL,ioos:station:DISL:CATA:1,2012-03-03T04:00:00Z,30.3085,-88.1395,2.127,16.44,1111122 
DISL,ioos:station:DISL:CATA:1,2012-03-03T04:30:00Z,30.3085,-88.1395,2.103,16.58,1111122 
DISL,ioos:station:DISL:CATA:1,2012-03-03T05:00:00Z,30.3085,-88.1395,2.053,16.17,1111122 
DISL,ioos:station:DISL:CATA:1,2012-03-03T05:30:00Z,30.3085,-88.1395,2.005,14.88,1111122 
DISL,ioos:station:DISL:CATA:1,2012-03-03T06:00:00Z,30.3085,-88.1395,1.975,14.99,1111122 
DISL,ioos:station:DISL:CATA:1,2012-03-03T06:30:00Z,30.3085,-88.1395,1.959,15.13,1111122 
DISL,ioos:station:DISL:CATA:1,2012-03-03T07:00:00Z,30.3085,-88.1395,1.931,15.69,1111122 
DISL,ioos:station:DISL:CATA:1,2012-03-03T07:30:00Z,30.3085,-88.1395,1.897,16.82,1111122 
DISL,ioos:station:DISL:CATA:1,2012-03-03T08:00:00Z,30.3085,-88.1395,1.882,16.72,1111122 
DISL,ioos:station:DISL:CATA:1,2012-03-03T08:30:00Z,30.3085,-88.1395,1.856,16.85,1111122 
DISL,ioos:station:DISL:CATA:1,2012-03-03T09:00:00Z,30.3085,-88.1395,1.856,16.91,1111122 
DISL,ioos:station:DISL:CATA:1,2012-03-03T09:30:00Z,30.3085,-88.1395,1.834,16.51,1111122 
DISL,ioos:station:DISL:CATA:1,2012-03-03T10:00:00Z,30.3085,-88.1395,1.811,16.81,1111122 
DISL,ioos:station:DISL:CATA:1,2012-03-03T10:30:00Z,30.3085,-88.1395,1.813,16.89,1111122 
DISL,ioos:station:DISL:CATA:1,2012-03-03T11:00:00Z,30.3085,-88.1395,1.807,17.09,1111122 
DISL,ioos:station:DISL:CATA:1,2012-03-03T11:30:00Z,30.3085,-88.1395,1.813,16.86,1111122 
DISL,ioos:station:DISL:CATA:1,2012-03-03T12:00:00Z,30.3085,-88.1395,1.831,16.73,1111122 
DISL,ioos:station:DISL:CATA:1,2012-03-03T12:30:00Z,30.3085,-88.1395,1.857,15.05,1111122 
DISL,ioos:station:DISL:CATA:1,2012-03-03T13:00:00Z,30.3085,-88.1395,1.873,14.15,1111122 
DISL,ioos:station:DISL:CATA:1,2012-03-03T13:30:00Z,30.3085,-88.1395,1.913,15.32,1111122 
DISL,ioos:station:DISL:CATA:1,2012-03-03T14:00:00Z,30.3085,-88.1395,1.943,15.65,1111122 
DISL,ioos:station:DISL:CATA:1,2012-03-03T14:30:00Z,30.3085,-88.1395,1.901,15.88,1111122 
DISL,ioos:station:DISL:CATA:1,2012-03-03T15:00:00Z,30.3085,-88.1395,1.869,15.64,1111122 
DISL,ioos:station:DISL:CATA:1,2012-03-03T15:30:00Z,30.3085,-88.1395,1.866,15.63,1111122 
DISL,ioos:station:DISL:CATA:1,2012-03-03T16:00:00Z,30.3085,-88.1395,1.879,15.05,1111122 
DISL,ioos:station:DISL:CATA:1,2012-03-03T16:30:00Z,30.3085,-88.1395,1.903,14.7,1111122 
DISL,ioos:station:DISL:CATA:1,2012-03-03T17:00:00Z,30.3085,-88.1395,1.907,14.47,1111122 
DISL,ioos:station:DISL:CATA:1,2012-03-03T17:30:00Z,30.3085,-88.1395,1.931,14.33,1111122 
DISL,ioos:station:DISL:CATA:1,2012-03-03T18:00:00Z,30.3085,-88.1395,1.935,14.38,1111122 
DISL,ioos:station:DISL:CATA:1,2012-03-03T18:30:00Z,30.3085,-88.1395,1.957,14.07,1111122 
DISL,ioos:station:DISL:CATA:1,2012-03-03T19:00:00Z,30.3085,-88.1395,1.943,13.96,1111122 
DISL,ioos:station:DISL:CATA:1,2012-03-03T19:30:00Z,30.3085,-88.1395,1.948,14.19,1111122 
DISL,ioos:station:DISL:CATA:1,2012-03-03T20:00:00Z,30.3085,-88.1395,1.976,14.66,1111122 
DISL,ioos:station:DISL:CATA:1,2012-03-03T20:30:00Z,30.3085,-88.1395,2.012,14.9,1111122 
DISL,ioos:station:DISL:CATA:1,2012-03-03T21:00:00Z,30.3085,-88.1395,2.043,14.27,1111122 
DISL,ioos:station:DISL:CATA:1,2012-03-03T21:30:00Z,30.3085,-88.1395,2.058,13.35,1111122 
DISL,ioos:station:DISL:CATA:1,2012-03-03T22:00:00Z,30.3085,-88.1395,2.096,13.38,1111122 
DISL,ioos:station:DISL:CATA:1,2012-03-03T22:30:00Z,30.3085,-88.1395,2.129,13.65,1111122 
DISL,ioos:station:DISL:CATA:1,2012-03-03T23:00:00Z,30.3085,-88.1395,2.15,14.04,1111122 
DISL,ioos:station:DISL:CATA:1,2012-03-03T23:30:00Z,30.3085,-88.1395,2.192,14.21,1111122 
DISL,ioos:station:DISL:CATA:1,2012-03-04T00:00:00Z,30.3085,-88.1395,2.22,14.11,1111122 
DISL,ioos:station:DISL:CATA:1,2012-03-04T00:30:00Z,30.3085,-88.1395,2.207,14.19,1111122 
DISL,ioos:station:DISL:CATA:1,2012-03-04T01:00:00Z,30.3085,-88.1395,2.195,14.2,1111122 
DISL,ioos:station:DISL:CATA:1,2012-03-04T01:30:00Z,30.3085,-88.1395,2.192,14.29,1111122 
DISL,ioos:station:DISL:CATA:1,2012-03-04T02:00:00Z,30.3085,-88.1395,2.173,14.16,1111122 
DISL,ioos:station:DISL:CATA:1,2012-03-04T02:30:00Z,30.3085,-88.1395,2.136,14.4,1111122 
DISL,ioos:station:DISL:CATA:1,2012-03-04T03:00:00Z,30.3085,-88.1395,2.083,14.3,1111122 
DISL,ioos:station:DISL:CATA:1,2012-03-04T03:30:00Z,30.3085,-88.1395,2.06,13.5,1111122 
DISL,ioos:station:DISL:CATA:1,2012-03-04T04:00:00Z,30.3085,-88.1395,2.033,13.63,1111122 
DISL,ioos:station:DISL:CATA:1,2012-03-04T04:30:00Z,30.3085,-88.1395,2.014,13.62,1111122 
DISL,ioos:station:DISL:CATA:1,2012-03-04T05:00:00Z,30.3085,-88.1395,1.993,13.61,1111122 
DISL,ioos:station:DISL:CATA:1,2012-03-04T05:30:00Z,30.3085,-88.1395,1.957,13.69,1111122 
DISL,ioos:station:DISL:CATA:1,2012-03-04T06:00:00Z,30.3085,-88.1395,1.911,13.7,1111122 
DISL,ioos:station:DISL:CATA:1,2012-03-04T06:30:00Z,30.3085,-88.1395,1.852,13.6,1111122 
DISL,ioos:station:DISL:CATA:1,2012-03-04T07:00:00Z,30.3085,-88.1395,1.815,13.48,1111122 
DISL,ioos:station:DISL:CATA:1,2012-03-04T07:30:00Z,30.3085,-88.1395,1.781,13.43,1111122 
DISL,ioos:station:DISL:CATA:1,2012-03-04T08:00:00Z,30.3085,-88.1395,1.74,13.31,1111122 
DISL,ioos:station:DISL:CATA:1,2012-03-04T08:30:00Z,30.3085,-88.1395,1.705,13.26,1111122 
DISL,ioos:station:DISL:CATA:1,2012-03-04T09:00:00Z,30.3085,-88.1395,1.689,13.11,1111122 
DISL,ioos:station:DISL:CATA:1,2012-03-04T09:30:00Z,30.3085,-88.1395,1.679,12.96,1111122 
DISL,ioos:station:DISL:CATA:1,2012-03-04T10:00:00Z,30.3085,-88.1395,1.663,12.87,1111122 
DISL,ioos:station:DISL:CATA:1,2012-03-04T10:30:00Z,30.3085,-88.1395,1.682,12.8,1111122 
DISL,ioos:station:DISL:CATA:1,2012-03-04T11:00:00Z,30.3085,-88.1395,1.69,12.78,1111122 
DISL,ioos:station:DISL:CATA:1,2012-03-04T11:30:00Z,30.3085,-88.1395,1.694,12.89,1111122 
DISL,ioos:station:DISL:CATA:1,2012-03-04T12:00:00Z,30.3085,-88.1395,1.676,13.06,1111122 
DISL,ioos:station:DISL:CATA:1,2012-03-04T12:30:00Z,30.3085,-88.1395,1.654,13.24,1111122 
DISL,ioos:station:DISL:CATA:1,2012-03-04T13:00:00Z,30.3085,-88.1395,1.636,13.28,1111122 
DISL,ioos:station:DISL:CATA:1,2012-03-04T13:30:00Z,30.3085,-88.1395,1.65,13.35,1111122 
DISL,ioos:station:DISL:CATA:1,2012-03-04T14:00:00Z,30.3085,-88.1395,1.633,13.42,1111122 
DISL,ioos:station:DISL:CATA:1,2012-03-04T14:30:00Z,30.3085,-88.1395,1.639,13.48,1111122 
DISL,ioos:station:DISL:CATA:1,2012-03-04T15:00:00Z,30.3085,-88.1395,1.631,13.55,1111122 
DISL,ioos:station:DISL:CATA:1,2012-03-04T15:30:00Z,30.3085,-88.1395,1.644,13.45,1111122 
DISL,ioos:station:DISL:CATA:1,2012-03-04T16:00:00Z,30.3085,-88.1395,1.679,13.39,1111122 
DISL,ioos:station:DISL:CATA:1,2012-03-04T16:30:00Z,30.3085,-88.1395,1.729,13.31,1111122 
DISL,ioos:station:DISL:CATA:1,2012-03-04T17:00:00Z,30.3085,-88.1395,1.774,13.29,1111122 
DISL,ioos:station:DISL:CATA:1,2012-03-04T17:30:00Z,30.3085,-88.1395,1.789,13.51,1111122 
DISL,ioos:station:DISL:CATA:1,2012-03-04T18:00:00Z,30.3085,-88.1395,1.8,13.43,1111122 
DISL,ioos:station:DISL:CATA:1,2012-03-04T18:30:00Z,30.3085,-88.1395,1.837,13.65,1111122 
DISL,ioos:station:DISL:CATA:1,2012-03-04T19:00:00Z,30.3085,-88.1395,1.845,13.51,1111122 
DISL,ioos:station:DISL:CATA:1,2012-03-04T19:30:00Z,30.3085,-88.1395,1.841,13.02,1111122 
DISL,ioos:station:DISL:CATA:1,2012-03-04T20:00:00Z,30.3085,-88.1395,1.854,13.07,1111122 
DISL,ioos:station:DISL:CATA:1,2012-03-04T20:30:00Z,30.3085,-88.1395,1.875,13.04,1111122 
DISL,ioos:station:DISL:CATA:1,2012-03-04T21:00:00Z,30.3085,-88.1395,1.892,13.33,1111122 
DISL,ioos:station:DISL:CATA:1,2012-03-04T21:30:00Z,30.3085,-88.1395,1.884,13.31,1111122 
DISL,ioos:station:DISL:CATA:1,2012-03-04T22:00:00Z,30.3085,-88.1395,1.874,13.44,1111122 
DISL,ioos:station:DISL:CATA:1,2012-03-04T22:30:00Z,30.3085,-88.1395,1.875,13.32,1111122 
DISL,ioos:station:DISL:CATA:1,2012-03-04T23:00:00Z,30.3085,-88.1395,1.883,12.98,1111122 
DISL,ioos:station:DISL:CATA:1,2012-03-04T23:30:00Z,30.3085,-88.1395,1.905,12.67,1111122 
DISL,ioos:station:DISL:CATA:1,2012-03-05T00:00:00Z,30.3085,-88.1395,1.912,12.58,1111122 
DISL,ioos:station:DISL:CATA:1,2012-03-05T00:30:00Z,30.3085,-88.1395,1.924,12.88,1111122 
DISL,ioos:station:DISL:CATA:1,2012-03-05T01:00:00Z,30.3085,-88.1395,1.921,12.43,1111122 
DISL,ioos:station:DISL:CATA:1,2012-03-05T01:30:00Z,30.3085,-88.1395,1.927,12.13,1111122 
DISL,ioos:station:DISL:CATA:1,2012-03-05T02:00:00Z,30.3085,-88.1395,1.923,11.81,1111122 
DISL,ioos:station:DISL:CATA:1,2012-03-05T02:30:00Z,30.3085,-88.1395,1.916,11.87,1111122 
DISL,ioos:station:DISL:CATA:1,2012-03-05T03:00:00Z,30.3085,-88.1395,1.904,11.98,1111122 
DISL,ioos:station:DISL:CATA:1,2012-03-05T03:30:00Z,30.3085,-88.1395,1.894,12.12,1111122 
DISL,ioos:station:DISL:CATA:1,2012-03-05T04:00:00Z,30.3085,-88.1395,1.877,12.21,1111122 
DISL,ioos:station:DISL:CATA:1,2012-03-05T04:30:00Z,30.3085,-88.1395,1.863,12.15,1111122 
DISL,ioos:station:DISL:CATA:1,2012-03-05T05:00:00Z,30.3085,-88.1395,1.838,12.68,1111122 
DISL,ioos:station:DISL:CATA:1,2012-03-05T05:30:00Z,30.3085,-88.1395,1.83,12.72,1111122 
DISL,ioos:station:DISL:CATA:1,2012-03-05T06:00:00Z,30.3085,-88.1395,1.806,12.78,1111122 
DISL,ioos:station:DISL:CATA:1,2012-03-05T06:30:00Z,30.3085,-88.1395,1.768,12.6,1111122 
DISL,ioos:station:DISL:CATA:1,2012-03-05T07:00:00Z,30.3085,-88.1395,1.738,12.99,1111122 
DISL,ioos:station:DISL:CATA:1,2012-03-05T07:30:00Z,30.3085,-88.1395,1.709,12.5,1111122 
DISL,ioos:station:DISL:CATA:1,2012-03-05T08:00:00Z,30.3085,-88.1395,1.681,12.79,1111122 
DISL,ioos:station:DISL:CATA:1,2012-03-05T08:30:00Z,30.3085,-88.1395,1.66,13.51,1111122 
DISL,ioos:station:DISL:CATA:1,2012-03-05T09:00:00Z,30.3085,-88.1395,1.637,14.43,1111122 
DISL,ioos:station:DISL:CATA:1,2012-03-05T09:30:00Z,30.3085,-88.1395,1.611,14.37,1111122 
DISL,ioos:station:DISL:CATA:1,2012-03-05T10:00:00Z,30.3085,-88.1395,1.581,13.77,1111122 
DISL,ioos:station:DISL:CATA:1,2012-03-05T10:30:00Z,30.3085,-88.1395,1.545,13.21,1111122 
DISL,ioos:station:DISL:CATA:1,2012-03-05T11:00:00Z,30.3085,-88.1395,1.513,12.64,1111122 
DISL,ioos:station:DISL:CATA:1,2012-03-05T11:30:00Z,30.3085,-88.1395,1.49,12.63,1111122 
DISL,ioos:station:DISL:CATA:1,2012-03-05T12:00:00Z,30.3085,-88.1395,1.485,12.49,1111122 
DISL,ioos:station:DISL:CATA:1,2012-03-05T12:30:00Z,30.3085,-88.1395,1.493,12.28,1111122 
DISL,ioos:station:DISL:CATA:1,2012-03-05T13:00:00Z,30.3085,-88.1395,1.503,12.09,1111122 
DISL,ioos:station:DISL:CATA:1,2012-03-05T13:30:00Z,30.3085,-88.1395,1.512,12.19,1111122 
DISL,ioos:station:DISL:CATA:1,2012-03-05T14:00:00Z,30.3085,-88.1395,1.52,12.22,1111122 
DISL,ioos:station:DISL:CATA:1,2012-03-05T14:30:00Z,30.3085,-88.1395,1.535,12.54,1111122 
DISL,ioos:station:DISL:CATA:1,2012-03-05T15:00:00Z,30.3085,-88.1395,1.554,12.32,1111122 
DISL,ioos:station:DISL:CATA:1,2012-03-05T15:30:00Z,30.3085,-88.1395,1.579,11.3,1111122 
DISL,ioos:station:DISL:CATA:1,2012-03-05T16:00:00Z,30.3085,-88.1395,1.595,11.14,1111122 
DISL,ioos:station:DISL:CATA:1,2012-03-05T16:30:00Z,30.3085,-88.1395,1.62,11.05,1111122 
DISL,ioos:station:DISL:CATA:1,2012-03-05T17:00:00Z,30.3085,-88.1395,1.637,11.02,1111122 
DISL,ioos:station:DISL:CATA:1,2012-03-05T17:30:00Z,30.3085,-88.1395,1.652,10.88,1111122 
DISL,ioos:station:DISL:CATA:1,2012-03-05T18:00:00Z,30.3085,-88.1395,1.663,12.08,1111122 
DISL,ioos:station:DISL:CATA:1,2012-03-05T18:30:00Z,30.3085,-88.1395,1.674,12.81,1111122 
DISL,ioos:station:DISL:CATA:1,2012-03-05T19:00:00Z,30.3085,-88.1395,1.681,12.82,1111122 
DISL,ioos:station:DISL:CATA:1,2012-03-05T19:30:00Z,30.3085,-88.1395,1.707,12.68,1111122 
DISL,ioos:station:DISL:CATA:1,2012-03-05T20:00:00Z,30.3085,-88.1395,1.735,12.83,1111122 
DISL,ioos:station:DISL:CATA:1,2012-03-05T20:30:00Z,30.3085,-88.1395,1.762,13.17,1111122 
DISL,ioos:station:DISL:CATA:1,2012-03-05T21:00:00Z,30.3085,-88.1395,1.78,13.33,1111122 
DISL,ioos:station:DISL:CATA:1,2012-03-05T21:30:00Z,30.3085,-88.1395,1.785,13.92,1111122 
DISL,ioos:station:DISL:CATA:1,2012-03-05T22:00:00Z,30.3085,-88.1395,1.812,13.84,1111122 
DISL,ioos:station:DISL:CATA:1,2012-03-05T22:30:00Z,30.3085,-88.1395,1.83,14.67,1111122 
DISL,ioos:station:DISL:CATA:1,2012-03-05T23:00:00Z,30.3085,-88.1395,1.858,14.81,1111122 
DISL,ioos:station:DISL:CATA:1,2012-03-05T23:30:00Z,30.3085,-88.1395,1.881,14.7,1111122 
DISL,ioos:station:DISL:CATA:1,2012-03-06T00:00:00Z,30.3085,-88.1395,1.895,14.7,1111122 
DISL,ioos:station:DISL:CATA:1,2012-03-06T00:30:00Z,30.3085,-88.1395,1.914,14.93,1111122 
DISL,ioos:station:DISL:CATA:1,2012-03-06T01:00:00Z,30.3085,-88.1395,1.929,15.4,1111122 
DISL,ioos:station:DISL:CATA:1,2012-03-06T01:30:00Z,30.3085,-88.1395,1.935,15.84,1111122 
DISL,ioos:station:DISL:CATA:1,2012-03-06T02:00:00Z,30.3085,-88.1395,1.942,16.05,1111122 
DISL,ioos:station:DISL:CATA:1,2012-03-06T02:30:00Z,30.3085,-88.1395,1.931,16.31,1111122 
DISL,ioos:station:DISL:CATA:1,2012-03-06T03:00:00Z,30.3085,-88.1395,1.934,16.6,1111122 
DISL,ioos:station:DISL:CATA:1,2012-03-06T03:30:00Z,30.3085,-88.1395,1.933,16.71,1111122 
DISL,ioos:station:DISL:CATA:1,2012-03-06T04:00:00Z,30.3085,-88.1395,1.922,16.77,1111122 
DISL,ioos:station:DISL:CATA:1,2012-03-06T04:30:00Z,30.3085,-88.1395,1.898,16.94,1111122 
DISL,ioos:station:DISL:CATA:1,2012-03-06T05:00:00Z,30.3085,-88.1395,1.874,16.56,1111122 
DISL,ioos:station:DISL:CATA:1,2012-03-06T05:30:00Z,30.3085,-88.1395,1.837,14.08,1111122 
DISL,ioos:station:DISL:CATA:1,2012-03-06T06:00:00Z,30.3085,-88.1395,1.81,12.81,1111122 
DISL,ioos:station:DISL:CATA:1,2012-03-06T06:30:00Z,30.3085,-88.1395,1.767,11.95,1111122 
DISL,ioos:station:DISL:CATA:1,2012-03-06T07:00:00Z,30.3085,-88.1395,1.723,10.58,1111122 
DISL,ioos:station:DISL:CATA:1,2012-03-06T07:30:00Z,30.3085,-88.1395,1.675,9.84,1111122 
DISL,ioos:station:DISL:CATA:1,2012-03-06T08:00:00Z,30.3085,-88.1395,1.64,9.69,1111122 
DISL,ioos:station:DISL:CATA:1,2012-03-06T08:30:00Z,30.3085,-88.1395,1.622,9.58,1111122 
DISL,ioos:station:DISL:CATA:1,2012-03-06T09:00:00Z,30.3085,-88.1395,1.578,9.39,1111122 
DISL,ioos:station:DISL:CATA:1,2012-03-06T09:30:00Z,30.3085,-88.1395,1.545,9.17,1111122 
DISL,ioos:station:DISL:CATA:1,2012-03-06T10:00:00Z,30.3085,-88.1395,1.525,8.98,1111122 
DISL,ioos:station:DISL:CATA:1,2012-03-06T10:30:00Z,30.3085,-88.1395,1.516,8.84,1111122 
DISL,ioos:station:DISL:CATA:1,2012-03-06T11:00:00Z,30.3085,-88.1395,1.504,8.62,1111122 
DISL,ioos:station:DISL:CATA:1,2012-03-06T11:30:00Z,30.3085,-88.1395,1.523,8.46,1111122 
DISL,ioos:station:DISL:CATA:1,2012-03-06T12:00:00Z,30.3085,-88.1395,1.527,8.56,1111122 
DISL,ioos:station:DISL:CATA:1,2012-03-06T12:30:00Z,30.3085,-88.1395,1.548,8.52,1111122 
DISL,ioos:station:DISL:CATA:1,2012-03-06T13:00:00Z,30.3085,-88.1395,1.55,8.46,1111122 
DISL,ioos:station:DISL:CATA:1,2012-03-06T13:30:00Z,30.3085,-88.1395,1.561,8.42,1111122 
DISL,ioos:station:DISL:CATA:1,2012-03-06T14:00:00Z,30.3085,-88.1395,1.57,8.42,1111122 